Погода в Лениногорске

Поиск расширенной информации на нашем сайте:

Полезная информация:

Новости сайта



02.01.2020
Опубликован Долгосрочный прогноз погоды по городам России и ближнего зарубежья на январь 2020 года.
Карты: Прогноз на январь и февраль 2020 года, Сравнение прогнозируемой аномалии приземной температуры воздуха на январь 2020 года по разным моделям.




Погода в Лениногорске - сегодня

Время (UTC), дата Ветер
(°,м/с) 
Видим.   Явления Облачность Т
(°С)
Тd
(°С)
f(%) Тe
(°С)
Pmin
(гПа)
dP
(гПа)
Po
(мм)
O2
(г/м3)
Тmin Tmax R s Состояние
почвы
12 22.10.21 250 (З) н/о  слаб. снег  10/10 600 м 
[Frnb|Ns]
+0.2 -2.1 85 +1  1030.2  2.1  699  282           
15 22.10.21 080 (В) н/о  {снег}  9/8 600 м средняя 
[Sc|Ac trans]
-1.2 -3.7 83 -1  1033  701  284    +9.4       
18 22.10.21 040 (СВ) н/о    9/0 средняя, верхняя 
[Ac As|Cs]
-1.5 -4.4 81 -1  1034.1  701  285    +9.4     
21 22.10.21 140 (ЮВ) н/о    9/0 средняя, верхняя 
[Ac As|Cs]
-2 -5 80 -1  1034.9  0.5  702  285           
00 23.10.21 280 (З) н/о  в посл. час снег  10/6 600 м средняя 
[Frnb|As op]
-2.4 -4.9 83 -2  1035.8  0.7  702  286           
03 23.10.21 260 (З) 50000 м    9/9 600 м 
[Sc]
-0.2 -3.8 77 -1  1035.6  0.5  703  284        равномерный
сухой снег
100% 
06 23.10.21 250 (З) 20000 м    9/6 600 м средняя 
[Sc|Ac lent]
+2.6 -9.4 41 +1  1035.1  0.5  703  281  -2.7    0.3     
09 23.10.21 270 (З) 20000 м    9/8 1000 м средняя 
[Sc|Ac lent]
+3 -9.7 39 +1  1033.9  -1  702  281           
12 23.10.21 100 (В) н/о    9/9 600 м 
[Sc]
+1.6 -8.7 46 -2  1034.1  -0.3  702  282           
15 23.10.21 160 (Ю) 14-17{20}  н/о    9/6 1000 м средняя, верхняя 
[Sc|Ac lent|Ci fib]
+2.6 -9.9 39 -3  1034  0.3  702  281    +3.4       
18 23.10.21 160 (Ю) 12-15{17}  н/о    9/5 1000 м средняя, верхняя 
[Sc|Ac lent|Ci fib]
+2.4 -8.3 45 -2  1035.1  703  282    +3.4       
21 23.10.21 230 (ЮЗ) 7{15}  н/о    9/6 1000 м средняя, верхняя 
[Sc|Ac lent|Ci fib]
+2 -5.6 57 -1  1034.6  -0.6  703  282           
00 24.10.21 200 (Ю) н/о    9/5 1000 м средняя, верхняя 
[Sc|Ac lent|Ci fib]
+2.6 -5.5 55 1034.1  -0.2  702  281           
03 24.10.21 230 (ЮЗ) 50000 м    9/6 1000 м средняя, верхняя 
[Sc|Ac lent|Ci fib]
+4 -7.5 43 +2  1034.1  0.4  703  280           
06 24.10.21 070 (В) 20000 м    9/9 1000 м 
[Sc]
+5.2 -5.2 47 +4  1032.9  -0.7  702  278  +1.8         
09 24.10.21 110 (В) 20000 м    9/9 1000 м 
[Sc]
+5.9 -2 57 +6  1032  -0.6  702  277           
12 24.10.21 090 (В) н/о    9/8 1000 м средняя, верхняя 
[Sc|Ac trans|Ci fib]
+4 -2.6 62 +4  1033  0.3  702  279           
15 24.10.21 130 (ЮВ) н/о    9/6 1000 м средняя 
[Sc|Ac trans]
+3 -1.6 72 +4  1033.3  702  280    +6.4       
18 24.10.21 090 (В) н/о    9/9 1000 м 
[Sc]
+2.4 -1.4 76 +3  1032.1  -1.3  701  280    +6.4       
21 24.10.21 080 (В) н/о    9/9 600 м 
[Sc]
+1.8 -1.8 77 +3  1029.7  -2.4  699  280           
00 25.10.21 050 (СВ) н/о    ясно 
-1.1 -4.9 75 -2  1029.4  -1.2  698  283           
03 25.10.21 140 (ЮВ) 20000 м    ясно 
+1.6 -3.9 67 +2  1027.4  -0.9  698  280           
06 25.10.21 230 (ЮЗ) 20000 м    ясно 
+10.4 +0.5 50 +11  1022.6  -1.5  697  270  -1.4         
09 25.10.21 110 (В) 20000 м    ясно 
+11.8 -1.9 38 +12  1020.7  -1.3  696  269           
12 25.10.21 090 (В) н/о    4/0 верхняя 
[Ci fib]
+7.2 -1.1 56 +7  1022.2  -0.1  695  273           
Время (UTC), дата Ветер
(°,м/с) 
Видим.   Явления Облачность Т
(°С)
Тd
(°С)
f(%) Тe
(°С)
Pmin
(гПа)
dP
(гПа)
Po
(мм)
O2
(г/м3)
Тmin Tmax R s Состояние
почвы

Для получения пояснительной информации подведите курсор к названию столбца.

ПОГОДА в Лениногорске - архив

Всё, что Вы хотите узнать о погоде в Лениногорске - удобно и подробно!

Выберите нужную дату (начиная с 1 января 2019* года) и нажмите кнопку "Найти".
Будут отображены архивные сводки погоды по пункту Лениногорск, начиная с указанной даты.


Отображать данные в формате CSV (для использования в таблицах Excel)


Внимание! Наш архив погоды предназначен исключительно для личного некоммерческого использования в познавательных целях. Если Вам необходимы официальные справки о состоянии погоды (для производственных, юридических, коммерческих и т.п. целей), обращайтесь в органы Росгидромета.

*Примечание: данная дата относится к архиву по метеостанциям СССР (Россия, СНГ, Балтия).
Архив по метеостанциям Зарубежной Европы и Азии (кроме Китая) хранится 10 дней, по другим регионам земного шара (Китай, Африка, Америка, Австралия, Океания) - 1 день.

Лениногорск - район местоположения метеостанции


Название, широта, долгота, высота метеостанции:
Лениногорск 50.3°ш. 83.6°д. 811 м над ур. моря [Казахстан]

Дополнительная информация

В oтличие oт бoльшинства пoгoдных сайтoв мы публикуем пoдрoбную метеoинфoрмацию в детальнoм прoфессиoнальнoм фoрмате.

Характеристики температуры и влажнoсти вoздуха измеряются на высoте 2 м в тени вдали oт зданий и деревьев.
Скoрoсть ветра измеряется на высoте 10 м (на урoвне рoста челoвека скoрoсть ветра ниже в 1.5-2 раза). Если метеoстанция нахoдится в гoрoде или в лесу, тo скoрoсть ветра занижена на 2-4 м/с пo сравнению с oткрытым местoм. Скoрoсть ветра над акватoриями крупных рек и oзёр, а также на вершинах хoлмoв на 2-5 м/с выше, чем в oбычных услoвиях.
Атмoсфернoе давление в разных тoчках местнoсти мoжет значительнo oтличаться oт давления на метеoстанции, в зависимoсти oт услoвий рельефа (при пoдъёме на 10 м давление пoнижается примернo на 1 мм рт.ст.).